Location: Arbon
(43.0005°N, 0.7472°E)
Time: 23:36:46
(UTC+00:00)

S-56A Canister/Altair - Pass Details

Date: 10 December 2020
Orbit: 633 x 2499 km, 38.9° (Epoch: 19 January)

Event Time Altitude Azimuth Distance (km) Brightness Sun altitude
Rises 19:21:49 0° 275° (W) 6,037 13.2 -31.9°
Reaches altitude 10° 19:26:04 10° 273° (W) 4,876 12.4 -32.7°
Maximum altitude 19:39:08 65° 196° (SSW) 1,926 9.4 -35.1°
Enters shadow 19:40:46 59° 157° (SSE) 1,925 9.2 -35.4°
